DELTA 1 DEB, 10710

Orbit data source: Space-Track

DELTA 1 DEB, 10710 is space debris in LEO originally from a launch on Thu, 29 Jul 1976 UTC launched from the Air Force Western Test Range (AFWTR). Debris objects in space refer to the collection of defunct objects orbiting the Earth. Examples of debris include non-operational satellites, rocket bodies, and fragments generated from explosions, collisions, or faulty payload assembly.

Loading next visibility...
DELTA 1 DEB details
Identifier
10710, 1976-077AF
Orbit
LEO
Last TLE update1 day ago
Origin
Flag of USGSFC (US)
ManufacturerUnknown
MissionSpacecraft
Bus & MotorUnknown
MassUnknown
Launch date (UTC)
1976-07-29 (48 years ago)
Launch vehicleUnknown
Launch site
Air Force Western Test Range (AFWTR)
Object type
Payload
Rocket body
Debris
Shape & HBRUnknown
Radar Cross SectionSmall (<0.1 m²)

Expand to show TLE details & history

TLE from 1 day ago
0 DELTA 1 DEB
1 10710U 76077AF  24360.52884983 -.00000089  00000-0 -55242-3 0  9998
2 10710 101.7648 200.2595 0272335 270.0199 114.1938 11.98968788113682
Epoch: 2024-12-25T12:41Z
Definitive object data (Epoch: 2024-12-25T12:41:32.625Z)
Latitude26.44066°
Longitude-90.56434°
Altitude1,783.249 km
Speed6.951 km/s
True Right ascension12h 57m 22s
True Declination26° 19' 16"
Sunlit
Object was in daylight at TLE epoch
Visualization TLE readout
Latitude-71.79172°
Longitude-44.64573°
Altitude1,500.318 km
Speed7.207 km/s
Apparent Right ascension23h 43m 34s
Apparent Declination-74° 02' 49"
Sunlit
Object is in daylight
Visualization observer readout
Local Sidereal Time13:31:37
Azimuth167.86° S
Elevation-53.587°
Doppler factor1
Orbital elements
Apogee altitude1,902.629 km
Perigee altitude1,463.558 km
Semi-major axis8,061.23 km
Eccentricity0.0272335
Inclination101.7648°
RAAN200.2595°
Arg. of periapsis270.0199°
True anomaly117.00011°
Mean anomaly114.1938°
Eccentric anomaly115.60098°
Mean motion2.99876 °/min
BSTAR-0.00055242
Orbital period120.05 mins
Loading maneuver chart data...
Loading historical data...
Loading historical data...
Loading historical data...
Loading historical data...
Loading historical data...
Loading historical data...
Loading historical data...

DELTA 1 DEB Visibility forecast

Observer location: undefined°, undefined

Span
Click to sort rows by Start time (UTC) header in descending order
Start Az.
Max El. time (UTC)
Max El. Az.
Max El.
End time (UTC)
End Az.
17 mins2024-12-26 14:38:50.079Z204.102° SW2024-12-26 14:46:50.079Z261.063° W29.014°2024-12-26 14:55:50.079Z325.156° NNW
16 mins2024-12-27 01:16:50.079Z37.326° NE2024-12-27 01:24:50.079Z99.64° ESE30.539°2024-12-27 01:32:50.079Z158.545° S
18 mins2024-12-27 03:13:50.079Z9.148° NNE2024-12-27 03:22:50.079Z289.654° WNW40.745°2024-12-27 03:31:50.079Z220.107° SW
9 mins2024-12-27 05:13:50.079Z343.957° N2024-12-27 05:17:50.079Z319.065° NNW15.587°2024-12-27 05:22:50.079Z287.834° WNW
10 mins2024-12-27 10:50:50.079Z72.206° E2024-12-27 10:54:50.079Z46.338° ENE17.085°2024-12-27 11:00:50.079Z9.274° NNE
18 mins2024-12-27 12:42:50.079Z141.782° SSE2024-12-27 12:50:50.079Z64.665° ENE42.223°2024-12-27 13:00:50.079Z348.009° N
|